Cosmos 1766 - Orbit

View from above orbital plane
View from above orbital plane
View from above satellite
View from above satellite

Ground track
Ground track

The orbit data is extracted from the following two-line orbital elements,

1 16881U 86055A   13137.43377955  .00002519  00000-0  18415-3 0  5913
2 16881 082.5130 036.3544 0014851 121.6473 238.6203 15.03137936456718
Epoch (UTC): 17 May 2013 10:24:38
Eccentricity: 0.0014851
inclination: 82.5130°
perigee height: 547 km
apogee height: 567 km
right ascension of ascending node: 36.3544°
argument of perigee: 121.6473°
revolutions per day: 15.03137936
mean anomaly at epoch: 238.6203°
orbit number at epoch: 45671

The dashed part of the orbit path shows where the satellite is in the earth's shadow,  

Developed and maintained by Chris Peat, Heavens-Above GmbH. Please read the updated FAQ before sending e-mail. Imprint. DLR